Flag for U.S.A. Weather past 2 weeks in Unalaska, Alaska, U.S.A.

Now
43 °F

More clouds than sun.


Feels Like: 38 °F
Forecast: 39 / 44 °F
Wind: 9 mph from Northwest

Location: Dutch Harbor

Current Time: Oct 25, 2014 at 11:31:50 AM

Latest Report: Oct 25, 2014 at 10:56 AM


Visibility: 10 mi

Pressure: 29.99 "Hg

Humidity: 76%

Dew point: 36 °F

Location of UnalaskaLocation

Historic Weather in Unalaska — Graph

°F

Unalaska temperature yesterday

Maximum temperature yesterday: 50 °F (at 2:56 PM)
Minimum temperature yesterday: 44 °F (at 11:56 PM)
Average temperature yesterday: 47 °F

Past Weeks' High & Low Weather Summary

 TemperatureHumidityPressure
High50 °F (Oct 24, 2:56 PM)93% (Oct 16, 9:56 AM)30.32 "Hg (Oct 16, 9:56 AM)
Low35 °F (Oct 19, 5:56 AM)55% (Oct 19, 3:56 PM)29.20 "Hg (Oct 16, 12:56 PM)
Average42 °F72%29.81 "Hg
* Reported Oct 10 9:56 AM — Oct 25 9:56 AM, Unalaska, Weather by CustomWeather, © 2014

Note: Actual official high and low records may vary slightly from our data, if they occured in-between our weather recording intervals... More about our weather records

Advertising

Unalaska weather history for previous 24 hours

 ConditionsComfort  
Time TempWeatherWind HumidityBarometerVisibility
9:56 AM
Oct 25
43 °FOvercast.6 mph76%29.98 "Hg10 mi
9:03 AM45 °FMostly cloudy.7 mph76%29.97 "Hg10 mi
8:56 AM44 °FOvercast.3 mph76%29.98 "Hg10 mi
7:56 AM42 °FPartly cloudy.3 mph82%29.98 "Hg10 mi
6:56 AM43 °FMostly cloudy.5 mph79%29.98 "Hg10 mi
5:56 AM44 °FPassing clouds.3 mph82%29.98 "Hg10 mi
4:56 AM44 °FMostly cloudy.5 mph82%29.99 "Hg10 mi
3:56 AM44 °FOvercast.No wind89%30.01 "Hg10 mi
2:56 AM44 °FMostly cloudy.No wind85%30.01 "Hg10 mi
1:56 AM45 °FOvercast.No wind82%30.01 "Hg10 mi
12:56 AM44 °FMostly cloudy.No wind85%30.00 "Hg10 mi
11:56 PM
Oct 24
44 °FMostly cloudy.No wind82%30.00 "Hg10 mi
10:56 PM45 °FMostly cloudy.No wind82%30.01 "Hg10 mi
9:56 PM45 °FOvercast.No wind86%30.01 "Hg10 mi
8:56 PM46 °FOvercast.No wind79%30.01 "Hg10 mi
7:56 PM46 °FMore clouds than sun.No wind79%30.01 "Hg10 mi
6:56 PM48 °FMostly cloudy.3 mph74%30.01 "Hg10 mi
5:56 PM48 °FMore clouds than sun.No wind71%30.01 "Hg10 mi
5:01 PM48 °FOvercast.No wind71%30.02 "Hg10 mi
4:56 PM48 °FMore clouds than sun.No wind77%30.02 "Hg7 mi
3:56 PM48 °FMostly cloudy.No wind74%30.02 "Hg10 mi
2:56 PM50 °FMore clouds than sun.7 mph68%30.04 "Hg9 mi
1:56 PM48 °FScattered clouds.10 mph74%30.05 "Hg4 mi
12:56 PM48 °FBroken clouds.No wind71%30.07 "Hg10 mi
11:56 AM47 °FMore clouds than sun.3 mph74%30.07 "Hg10 mi
Weather by CustomWeather, © 2014

See weather overviewHow to use our weather pages